FW8528 Weather Reports


Display with metric or nautical units.
time (UTC)temp
F
wind
direction
speed
MPH
gust
MPH
rain 1hr
in
rain 24hr
in
rain mn
in
humidity
%
barometer
mb
20260831093414 51 241 0.0 1.0 0.00 0.00 0.00 99 1015.1
20260831092911 50 241 0.0 0.0 0.00 0.00 0.00 99 1015.1
20260831092407 51 240 0.0 0.0 0.00 0.00 0.00 99 1015.1
20260831091902 51 241 0.0 0.0 0.00 0.00 0.00 99 1015.4
20260831091357 51 241 0.0 0.0 0.00 0.00 0.00 99 1015.4
20260831090852 51 240 0.0 0.0 0.00 0.00 0.00 99 1015.4
20260831090348 51 240 0.0 0.0 0.00 0.00 0.00 99 1015.4
20260831085844 51 241 0.0 0.0 0.00 0.00 0.00 99 1015.8
20260831085338 51 240 0.0 0.0 0.00 0.00 0.00 99 1015.4
20260831084833 51 240 0.0 0.0 0.00 0.00 0.00 98 1015.4
20260831084329 51 241 0.0 0.0 0.00 0.00 0.00 99 1015.4
20260831083825 51 240 0.0 0.0 0.00 0.00 0.00 98 1015.8
20260831083321 51 240 0.0 0.0 0.00 0.00 0.00 98 1015.4
20260831082819 51 240 0.0 0.0 0.00 0.00 0.00 98 1015.8
20260831082314 51 240 0.0 0.0 0.00 0.00 0.00 98 1015.4
20260831081810 51 240 0.0 0.0 0.00 0.00 0.00 98 1015.8
20260831081305 51 240 0.0 0.0 0.00 0.00 0.00 98 1015.8
20260831080801 51 240 0.0 0.0 0.00 0.00 0.00 98 1015.8
20260831080255 51 240 0.0 0.0 0.00 0.00 0.00 97 1015.8
20260831075751 51 240 0.0 0.0 0.00 0.00 0.00 97 1015.8
20260831075246 51 240 0.0 0.0 0.00 0.00 0.00 97 1015.8
20260831074746 51 240 0.0 0.0 0.00 0.00 0.00 97 1015.8
20260831074240 52 240 0.0 0.0 0.00 0.00 0.00 96 1016.2
20260831073736 52 240 0.0 0.0 0.00 0.00 0.00 97 1015.8
20260831073235 52 240 0.0 0.0 0.00 0.00 0.00 96 1015.8
20260831072730 52 240 0.0 0.0 0.00 0.00 0.00 96 1015.8
20260831072227 52 240 0.0 0.0 0.00 0.00 0.00 96 1016.2
20260831071726 52 240 0.0 0.0 0.00 0.00 0.00 96 1016.2
20260831071221 52 240 0.0 0.0 0.00 0.00 0.00 95 1016.2
20260831070715 52 240 0.0 0.0 0.00 0.00 0.00 95 1016.2
20260831070209 53 240 0.0 0.0 0.00 0.00 0.00 95 1016.6
20260831065708 52 240 0.0 0.0 0.00 0.00 0.00 94 1016.6
20260831065207 53 240 0.0 0.0 0.00 0.00 0.00 94 1016.6
20260831064702 53 240 0.0 0.0 0.00 0.00 0.00 94 1016.6
20260831064157 53 240 0.0 0.0 0.00 0.00 0.00 93 1016.6
20260831063653 53 240 0.0 0.0 0.00 0.00 0.00 92 1016.6
20260831063148 53 240 0.0 0.0 0.00 0.00 0.00 92 1016.9
20260831062643 54 240 0.0 0.0 0.00 0.00 0.00 92 1016.6
20260831062142 54 240 0.0 0.0 0.00 0.00 0.00 91 1016.9
20260831061640 54 240 0.0 0.0 0.00 0.00 0.00 90 1016.9
20260831061136 54 240 0.0 0.0 0.00 0.00 0.00 91 1016.9
20260831060632 55 240 0.0 0.0 0.00 0.00 0.00 90 1016.9
20260831060132 55 240 0.0 0.0 0.00 0.00 0.00 88 1017.2
20260831055631 55 240 0.0 0.0 0.00 0.00 0.00 88 1016.9
20260831055127 56 239 0.0 0.0 0.00 0.00 0.00 88 1016.9
20260831054626 56 240 0.0 0.0 0.00 0.00 0.00 86 1017.2
20260831054121 57 231 0.0 0.0 0.00 0.00 0.00 85 1016.9
20260831053620 58 243 0.0 0.0 0.00 0.00 0.00 84 1017.2
20260831053114 59 162 1.0 2.0 0.00 0.00 0.00 82 1016.9
20260831052613 59 290 2.0 2.0 0.00 0.00 0.00 82 1017.2
20260831052107 58 271 0.0 0.0 0.00 0.00 0.00 83 1017.2
20260831051605 56 255 0.0 0.0 0.00 0.00 0.00 87 1017.2
20260831051104 56 251 0.0 0.0 0.00 0.00 0.00 87 1017.6
20260831050604 57 226 0.0 1.0 0.00 0.00 0.00 85 1017.6
20260831045557 57 266 0.0 0.0 0.00 0.00 0.00 84 1017.6
20260831045052 56 267 1.0 1.0 0.00 0.00 0.00 85 1017.6
20260831044548 56 251 0.0 0.0 0.00 0.00 0.00 86 1017.6
20260831044042 57 251 0.0 0.0 0.00 0.00 0.00 85 1017.6
20260831043537 57 251 0.0 0.0 0.00 0.00 0.00 85 1017.6
20260831043033 57 251 0.0 0.0 0.00 0.00 0.00 84 1017.9
20260831042532 58 251 0.0 0.0 0.00 0.00 0.00 83 1017.6
20260831042032 58 251 0.0 0.0 0.00 0.00 0.00 81 1017.6
20260831041528 58 250 0.0 0.0 0.00 0.00 0.00 82 1017.9
20260831041021 59 250 0.0 0.0 0.00 0.00 0.00 82 1017.9
20260831040516 59 252 0.0 0.0 0.00 0.00 0.00 79 1017.9
20260831040015 60 238 0.0 0.0 0.00 0.00 0.00 78 1017.9
20260831035508 61 250 0.0 0.0 0.00 0.00 0.00 78 1017.6
20260831035003 61 271 0.0 0.0 0.00 0.00 0.00 76 1017.6
20260831034457 60 268 0.0 1.0 0.00 0.00 0.00 77 1017.6
20260831033953 60 269 0.0 0.0 0.00 0.00 0.00 78 1017.6
20260831033448 61 257 0.0 0.0 0.00 0.00 0.00 76 1017.2
20260831032943 61 264 0.0 0.0 0.00 0.00 0.00 76 1017.6
20260831032438 62 247 0.0 0.0 0.00 0.00 0.00 77 1017.6
20260831031933 62 247 0.0 0.0 0.00 0.00 0.00 74 1017.6
20260831031432 62 233 0.0 0.0 0.00 0.00 0.00 75 1017.6
20260831030932 63 210 0.0 1.0 0.00 0.00 0.00 73 1017.2
20260831030431 63 221 0.0 0.0 0.00 0.00 0.00 72 1017.2
20260831025930 63 234 0.0 0.0 0.00 0.00 0.00 73 1017.2
20260831025429 64 172 1.0 1.0 0.00 0.00 0.00 71 1017.6
20260831024925 64 209 1.0 1.0 0.00 0.00 0.00 71 1017.6
20260831024424 64 220 0.0 1.0 0.00 0.00 0.00 70 1017.2
20260831023919 65 144 2.0 2.0 0.00 0.00 0.00 69 1017.6
20260831023417 65 210 1.0 1.0 0.00 0.00 0.00 69 1017.2
20260831022913 65 212 3.0 3.0 0.00 0.00 0.00 69 1017.6
20260831022411 66 214 0.0 1.0 0.00 0.00 0.00 69 1017.6
20260831021906 66 194 1.0 1.0 0.00 0.00 0.00 67 1017.2
20260831021406 66 207 1.0 1.0 0.00 0.00 0.00 67 1017.6
20260831020902 66 215 1.0 1.0 0.00 0.00 0.00 66 1017.6
20260831020401 66 228 1.0 1.0 0.00 0.00 0.00 65 1017.6
20260831015856 67 277 0.0 0.0 0.00 0.00 0.00 65 1017.6
20260831015352 67 214 1.0 2.0 0.00 0.00 0.00 64 1017.6
20260831014847 67 236 0.0 0.0 0.00 0.00 0.00 62 1017.6
20260831014341 68 205 1.0 1.0 0.00 0.00 0.00 61 1017.6
20260831013838 68 259 0.0 0.0 0.00 0.00 0.00 61 1017.6
20260831013332 68 254 0.0 0.0 0.00 0.00 0.00 61 1017.6
20260831012826 68 227 0.0 1.0 0.00 0.00 0.00 59 1017.6
20260831012322 68 233 2.0 2.0 0.00 0.00 0.00 59 1017.2
20260831011822 69 94 2.0 2.0 0.00 0.00 0.00 59 1017.6
20260831011317 69 273 0.0 1.0 0.00 0.00 0.00 60 1017.6
20260831010813 70 207 1.0 1.0 0.00 0.00 0.00 60 1017.6
20260831010312 70 262 1.0 1.0 0.00 0.00 0.00 58 1017.6
20260831005808 70 244 0.0 0.0 0.00 0.00 0.00 58 1017.6
20260831005306 69 265 1.0 1.0 0.00 0.00 0.00 58 1017.6
20260831004758 69 228 0.0 1.0 0.00 0.00 0.00 60 1017.6
20260831004254 69 136 1.0 2.0 0.00 0.00 0.00 59 1017.6
20260831003749 69 208 1.0 1.0 0.00 0.00 0.00 59 1017.6
20260831003245 71 293 3.0 3.0 0.00 0.00 0.00 56 1017.6
20260831002744 70 218 0.0 0.0 0.00 0.00 0.00 58 1017.6
20260831002239 70 315 0.0 0.0 0.00 0.00 0.00 57 1017.9
20260831001735 70 254 0.0 0.0 0.00 0.00 0.00 56 1017.6
20260831001230 71 265 0.0 0.0 0.00 0.00 0.00 55 1017.9
20260831000727 70 346 1.0 1.0 0.00 0.00 0.00 57 1017.9
20260831000222 69 225 1.0 1.0 0.00 0.00 0.00 58 1017.9
20260830235721 69 291 0.0 1.0 0.00 0.00 0.00 57 1017.9
20260830235216 69 59 1.0 1.0 0.00 0.00 0.00 58 1017.9
20260830234710 70 243 0.0 0.0 0.00 0.00 0.00 57 1018.2
20260830234207 70 274 0.0 0.0 0.00 0.00 0.00 58 1017.9
20260830233702 69 130 2.0 2.0 0.00 0.00 0.00 60 1018.2
20260830233157 69 100 0.0 1.0 0.00 0.00 0.00 57 1018.2
20260830232653 70 23 2.0 2.0 0.00 0.00 0.00 57 1018.2
20260830232149 70 221 1.0 1.0 0.00 0.00 0.00 56 1018.2
20260830231645 70 250 0.0 0.0 0.00 0.00 0.00 55 1018.2
20260830231144 71 234 0.0 0.0 0.00 0.00 0.00 55 1018.2
20260830230639 71 245 0.0 0.0 0.00 0.00 0.00 55 1018.2
20260830230139 69 235 0.0 0.0 0.00 0.00 0.00 57 1018.6
20260830225634 70 206 1.0 1.0 0.00 0.00 0.00 58 1018.6
20260830225129 70 226 0.0 1.0 0.00 0.00 0.00 56 1018.6
20260830224627 70 254 0.0 0.0 0.00 0.00 0.00 58 1018.6
20260830224124 69 273 0.0 1.0 0.00 0.00 0.00 56 1018.6
20260830223621 70 277 1.0 1.0 0.00 0.00 0.00 55 1018.6
20260830223120 69 235 0.0 0.0 0.00 0.00 0.00 57 1018.6
20260830222615 70 294 1.0 1.0 0.00 0.00 0.00 57 1018.6
20260830222111 69 272 0.0 0.0 0.00 0.00 0.00 58 1018.9
20260830221606 69 50 1.0 1.0 0.00 0.00 0.00 57 1018.9
20260830221102 69 218 1.0 2.0 0.00 0.00 0.00 59 1018.9
20260830220557 69 239 0.0 1.0 0.00 0.00 0.00 59 1018.6
20260830220055 68 117 2.0 2.0 0.00 0.00 0.00 61 1018.9
20260830215555 69 108 1.0 2.0 0.00 0.00 0.00 58 1018.9
20260830215050 69 239 0.0 1.0 0.00 0.00 0.00 57 1018.9
20260830214545 69 272 1.0 1.0 0.00 0.00 0.00 56 1018.9
20260830214040 69 237 3.0 3.0 0.00 0.00 0.00 57 1019.3
20260830213539 68 146 2.0 3.0 0.00 0.00 0.00 58 1019.3
20260830213035 69 201 1.0 1.0 0.00 0.00 0.00 57 1019.3
20260830212531 68 242 0.0 0.0 0.00 0.00 0.00 58 1019.3
20260830212026 68 245 1.0 1.0 0.00 0.00 0.00 58 1019.3
20260830211521 68 288 0.0 1.0 0.00 0.00 0.00 58 1019.6
20260830211020 67 199 3.0 3.0 0.00 0.00 0.00 58 1019.3
20260830210520 68 119 1.0 3.0 0.00 0.00 0.00 59 1019.3
20260830210015 69 210 4.0 5.0 0.00 0.00 0.00 57 1019.3
20260830205512 68 283 1.0 2.0 0.00 0.00 0.00 57 1019.6
20260830205008 68 248 0.0 1.0 0.00 0.00 0.00 58 1019.3
20260830204507 68 210 2.0 2.0 0.00 0.00 0.00 58 1019.3
20260830204001 67 220 1.0 1.0 0.00 0.00 0.00 60 1019.6
20260830203458 67 222 0.0 0.0 0.00 0.00 0.00 61 1019.3
20260830202957 67 281 0.0 0.0 0.00 0.00 0.00 60 1019.3
20260830202452 66 212 0.0 0.0 0.00 0.00 0.00 62 1019.6
20260830201948 66 228 1.0 1.0 0.00 0.00 0.00 63 1019.6
20260830201447 67 200 2.0 2.0 0.00 0.00 0.00 63 1019.3
20260830200943 66 270 0.0 0.0 0.00 0.00 0.00 64 1019.6
20260830200442 66 223 1.0 1.0 0.00 0.00 0.00 66 1019.3
20260830195937 65 205 1.0 1.0 0.00 0.00 0.00 68 1019.6
20260830195433 65 206 1.0 2.0 0.00 0.00 0.00 68 1019.6
20260830194931 65 155 2.0 2.0 0.00 0.00 0.00 67 1019.6
20260830194430 66 207 3.0 3.0 0.00 0.00 0.00 66 1019.6
20260830193930 67 176 2.0 2.0 0.00 0.00 0.00 65 1019.6
20260830193429 66 292 0.0 1.0 0.00 0.00 0.00 66 1019.3
20260830192925 67 159 2.0 2.0 0.00 0.00 0.00 66 1019.3
20260830192420 67 258 0.0 0.0 0.00 0.00 0.00 67 1019.3
20260830191915 66 70 2.0 3.0 0.00 0.00 0.00 69 1019.6
20260830191415 69 195 2.0 2.0 0.00 0.00 0.00 63 1019.6
20260830190910 68 274 1.0 1.0 0.00 0.00 0.00 65 1019.6
20260830190405 66 264 1.0 1.0 0.00 0.00 0.00 66 1019.6
20260830185904 65 208 2.0 2.0 0.00 0.00 0.00 67 1019.6
20260830185359 65 155 0.0 0.0 0.00 0.00 0.00 68 1019.6
20260830184854 65 295 1.0 1.0 0.00 0.00 0.00 68 1019.9
20260830184353 67 285 1.0 2.0 0.00 0.00 0.00 66 1019.9
20260830183848 69 213 1.0 2.0 0.00 0.00 0.00 64 1019.9
20260830183343 67 221 0.0 1.0 0.00 0.00 0.00 67 1019.6
20260830182838 67 245 2.0 3.0 0.00 0.00 0.00 68 1019.9
20260830182334 68 236 1.0 2.0 0.00 0.00 0.00 66 1019.9
20260830181830 66 264 0.0 1.0 0.00 0.00 0.00 70 1019.6
20260830181325 67 195 4.0 6.0 0.00 0.00 0.00 70 1019.6
20260830180824 65 246 0.0 0.0 0.00 0.00 0.00 69 1019.6
20260830180319 66 160 3.0 3.0 0.00 0.00 0.00 70 1019.6
20260830175818 64 279 1.0 1.0 0.00 0.00 0.00 71 1019.6
20260830175313 63 192 1.0 3.0 0.00 0.00 0.00 75 1019.6
20260830174808 62 207 0.0 1.0 0.00 0.00 0.00 77 1019.3
20260830174304 61 147 2.0 2.0 0.00 0.00 0.00 77 1019.6
20260830173803 61 292 1.0 1.0 0.00 0.00 0.00 78 1019.6
20260830173259 62 186 0.0 2.0 0.00 0.00 0.00 79 1019.6
20260830172755 61 223 0.0 0.0 0.00 0.00 0.00 79 1019.6
20260830172252 61 189 2.0 3.0 0.00 0.00 0.00 79 1019.6
20260830171747 61 256 1.0 1.0 0.00 0.00 0.00 79 1019.6
20260830171242 60 212 1.0 1.0 0.00 0.00 0.00 81 1019.6
20260830170737 60 226 2.0 2.0 0.00 0.00 0.00 81 1019.6
20260830170236 60 291 1.0 1.0 0.00 0.00 0.00 80 1019.6
20260830165735 59 246 0.0 0.0 0.00 0.00 0.00 84 1019.6
20260830165231 59 231 0.0 1.0 0.00 0.00 0.00 85 1019.6
20260830164727 58 266 0.0 0.0 0.00 0.00 0.00 86 1019.6
20260830164223 58 229 0.0 0.0 0.00 0.00 0.00 87 1019.6
20260830163720 58 192 1.0 1.0 0.00 0.00 0.00 87 1019.9
20260830163215 59 231 0.0 0.0 0.00 0.00 0.00 86 1019.6
20260830162709 59 282 0.0 1.0 0.00 0.00 0.00 87 1019.6
20260830162205 57 345 2.0 2.0 0.00 0.00 0.00 89 1019.9
20260830161700 57 218 1.0 2.0 0.00 0.00 0.00 91 1019.9
20260830161154 56 232 0.0 0.0 0.00 0.00 0.00 92 1019.9
20260830160651 57 236 0.0 1.0 0.00 0.00 0.00 92 1019.9
20260830160145 56 204 1.0 2.0 0.00 0.00 0.00 92 1019.9
20260830155642 56 238 0.0 0.0 0.00 0.00 0.00 93 1019.6
20260830155137 56 232 0.0 0.0 0.00 0.00 0.00 93 1019.9
20260830154632 56 231 0.0 0.0 0.00 0.00 0.00 94 1019.9
20260830154128 56 281 0.0 0.0 0.00 0.00 0.00 94 1019.9
20260830153625 56 246 0.0 1.0 0.00 0.00 0.00 94 1020.4
20260830153124 55 225 0.0 0.0 0.00 0.00 0.00 95 1019.9
20260830152623 55 162 1.0 1.0 0.00 0.00 0.00 96 1019.9
20260830152122 55 236 0.0 0.0 0.00 0.00 0.00 96 1019.9
20260830151618 55 239 0.0 0.0 0.00 0.00 0.00 96 1019.9
20260830151113 55 175 0.0 1.0 0.00 0.00 0.00 95 1019.9
20260830150612 55 264 0.0 0.0 0.00 0.00 0.00 95 1020.4
20260830150107 55 278 0.0 0.0 0.00 0.00 0.00 95 1020.4
20260830145606 55 268 0.0 0.0 0.00 0.00 0.00 95 1019.9
20260830145101 55 206 1.0 1.0 0.00 0.00 0.00 95 1019.9
20260830144557 55 242 0.0 0.0 0.00 0.00 0.00 95 1019.6
20260830144053 55 271 0.0 1.0 0.00 0.00 0.00 95 1019.9
20260830143549 55 238 0.0 0.0 0.00 0.00 0.00 95 1019.9
20260830143047 55 235 0.0 0.0 0.00 0.00 0.00 95 1019.6
20260830142542 55 236 0.0 0.0 0.00 0.00 0.00 96 1019.6
20260830142037 55 234 0.0 0.0 0.00 0.00 0.00 97 1019.6
20260830141532 54 234 0.0 0.0 0.00 0.00 0.00 97 1019.6
20260830141027 54 233 0.0 0.0 0.00 0.00 0.00 97 1019.6
20260830140526 54 233 0.0 0.0 0.00 0.00 0.00 97 1019.3
20260830140023 54 233 0.0 0.0 0.00 0.00 0.00 97 1019.3
20260830135512 54 233 0.0 0.0 0.00 0.00 0.00 98 1019.3
20260830135007 54 233 0.0 0.0 0.00 0.00 0.00 97 1019.6
20260830134502 53 233 0.0 0.0 0.00 0.00 0.00 98 1019.3
20260830133957 53 233 0.0 0.0 0.00 0.00 0.00 98 1019.3
20260830133453 53 233 0.0 0.0 0.00 0.00 0.00 98 1019.3
20260830132948 53 233 0.0 0.0 0.00 0.00 0.00 98 1019.3
20260830132444 53 233 0.0 0.0 0.00 0.00 0.00 98 1018.9
20260830131943 53 233 0.0 0.0 0.00 0.00 0.00 98 1019.3
20260830131437 53 233 0.0 0.0 0.00 0.00 0.00 98 1019.3
20260830130932 53 233 0.0 0.0 0.00 0.00 0.00 97 1018.9
20260830130428 53 233 0.0 0.0 0.00 0.00 0.00 97 1019.3
20260830125926 53 233 0.0 0.0 0.00 0.00 0.00 97 1019.3
20260830125422 53 233 0.0 0.0 0.00 0.00 0.00 97 1019.3
20260830124920 53 233 0.0 0.0 0.00 0.00 0.00 97 1019.3
20260830124415 54 233 0.0 0.0 0.00 0.00 0.00 97 1019.3
20260830123912 54 233 0.0 0.0 0.00 0.00 0.00 97 1019.3
20260830123408 54 233 0.0 0.0 0.00 0.00 0.00 97 1019.3
20260830122906 54 233 0.0 0.0 0.00 0.00 0.00 97 1018.9
20260830122400 54 233 0.0 0.0 0.00 0.00 0.00 97 1018.9
20260830121855 54 233 0.0 0.0 0.00 0.00 0.00 97 1019.3
20260830121355 54 233 0.0 0.0 0.00 0.00 0.00 97 1019.3
20260830120850 54 233 0.0 0.0 0.00 0.00 0.00 97 1019.3
20260830120346 54 232 0.0 0.0 0.00 0.00 0.00 97 1019.3
20260830115842 54 232 0.0 0.0 0.00 0.00 0.00 97 1019.3
20260830115338 54 233 0.0 0.0 0.00 0.00 0.00 97 1019.3
20260830114833 54 233 0.0 0.0 0.00 0.00 0.00 98 1019.3
20260830114330 54 233 0.0 0.0 0.00 0.00 0.00 97 1019.3
20260830113824 54 233 0.0 0.0 0.00 0.00 0.00 97 1019.3
20260830113319 54 233 0.0 0.0 0.00 0.00 0.00 97 1019.3
20260830112815 54 233 0.0 0.0 0.00 0.00 0.00 97 1019.3
20260830112311 54 233 0.0 0.0 0.00 0.00 0.00 96 1018.9
20260830111807 55 233 0.0 0.0 0.00 0.00 0.00 96 1019.3
20260830111302 55 233 0.0 0.0 0.00 0.00 0.00 96 1018.9
20260830110802 55 233 0.0 0.0 0.00 0.00 0.00 95 1019.3
20260830110259 55 233 0.0 0.0 0.00 0.00 0.00 95 1018.9
20260830105757 55 233 0.0 0.0 0.00 0.00 0.00 95 1019.3
20260830105254 55 232 0.0 0.0 0.00 0.00 0.00 95 1018.9
20260830104750 55 233 0.0 0.0 0.00 0.00 0.00 95 1018.9
20260830104247 55 232 0.0 0.0 0.00 0.00 0.00 95 1018.9
20260830103745 55 232 0.0 0.0 0.00 0.00 0.00 95 1019.3
20260830103242 55 232 0.0 0.0 0.00 0.00 0.00 95 1019.3
20260830102739 55 232 0.0 0.0 0.00 0.00 0.00 95 1018.9
20260830102235 55 233 0.0 0.0 0.00 0.00 0.00 95 1018.9
20260830101731 55 233 0.0 0.0 0.00 0.00 0.00 95 1018.9
20260830101227 55 233 0.0 0.0 0.00 0.00 0.00 95 1018.9
20260830100720 55 233 0.0 0.0 0.00 0.00 0.00 95 1018.9
20260830100214 55 233 0.0 0.0 0.00 0.00 0.00 94 1018.9
20260830095713 55 233 0.0 0.0 0.00 0.00 0.00 94 1018.9
20260830095210 55 233 0.0 0.0 0.00 0.00 0.00 94 1018.9
20260830094705 55 233 0.0 0.0 0.00 0.00 0.00 94 1018.9
20260830094201 55 233 0.0 0.0 0.00 0.00 0.00 94 1018.9